Voltar ao catálogo

STARLINK-3126

AtivoComunicaçõesVLEO
NORAD 49444·PAYLOAD·🇺🇸 United States

Lançado Nov 13, 2021 de Cape Canaveral Space Force Station

Loading…

Próximas Passagens (próximas 24 horas)

TLE

AtualizadoSource: CelesTrak SupGP

Época: Sep 14, 2026, 21:24 UTC

1 49444C 21104AN  26257.89215278  .00036657  00000+0  11783-2 0  2572
2 49444  53.1584  74.9701 0000904  83.0465  60.8527 15.31696954    18

Acompanhe STARLINK-3126 em tempo real com AllMySat

Download on the App Store